Location: Liverpool
(53.4163°N, 2.9405°W)
Time: 01:05:54
(UTC+01:00)

ISS - Pass Details

Date: 17 February 2013
Orbit: 402 x 404 km, 51.6° (Epoch: 27 May)

Event Time Altitude Azimuth Distance (km) Brightness Sun altitude
Rises 18:49:57 0° 258° (WSW) 2,322 2.4 -13.0°
Reaches altitude 10° 18:52:02 10° 255° (WSW) 1,465 0.8 -13.3°
Maximum altitude 18:55:16 62° 174° (S) 465 -3.1 -13.8°
Enters shadow 18:56:48 28° 102° (ESE) 801 -2.4 -14.0°
